Flag for U.S.A. Weather past 2 weeks in Spartanburg, South Carolina, U.S.A.

54 °F


Feels Like: 54 °F
Forecast: 50 / 66 °F
Wind: No wind

Location: Spartanburg Memorial

Current Time: Nov 29, 2015 at 6:05:47 AM

Latest Report: Nov 29, 2015 at 5:35 AM

Visibility: 10 mi

Pressure: 30.16 "Hg

Humidity: 94%

Dew point: 52 °F

Location of SpartanburgLocation

Historic Weather in Spartanburg — Graph


Spartanburg temperature yesterday

Maximum temperature yesterday: 70 °F (at 1:15 PM)
Minimum temperature yesterday: 46 °F (at 7:35 AM)
Average temperature yesterday: 58 °F

Past Weeks' High & Low Weather Summary

High73 °F (Nov 19, 2:55 PM)100% (Nov 16, 3:35 AM)30.72 "Hg (Nov 16, 3:35 AM)
Low27 °F (Nov 23, 7:15 AM)9% (Nov 14, 2:55 PM)29.91 "Hg (Nov 22, 3:35 AM)
Average50 °F64%30.29 "Hg
* Reported Nov 14 4:15 AM — Nov 29 4:35 AM, Spartanburg, Weather by CustomWeather, © 2015

Note: Actual official high and low records may vary slightly from our data, if they occured in-between our weather recording intervals... More about our weather records


Spartanburg weather history for previous 24 hours

Time TempWeatherWind HumidityBarometerVisibility
4:35 AM
Sun, Nov 29
55 °FOvercast.No wind88%30.16 "Hg10 mi
4:15 AM55 °FOvercast.3 mph88%30.17 "Hg10 mi
3:55 AM55 °FOvercast.No wind88%30.17 "Hg10 mi
3:35 AM57 °FOvercast.No wind82%30.17 "Hg10 mi
3:15 AM57 °FOvercast.No wind82%30.17 "Hg10 mi
2:55 AM55 °FOvercast.No wind88%30.18 "Hg10 mi
1:35 AM57 °FOvercast.No wind82%30.20 "Hg10 mi
12:15 AM59 °FClear.No wind77%30.20 "Hg10 mi
11:55 PM
Sat, Nov 28
59 °FClear.No wind77%30.20 "Hg10 mi
11:35 PM59 °FClear.No wind77%30.20 "Hg10 mi
10:55 PM57 °FClear.No wind82%30.20 "Hg10 mi
10:15 PM59 °FClear.No wind77%30.21 "Hg10 mi
9:55 PM59 °FClear.No wind77%30.21 "Hg10 mi
9:35 PM59 °FClear.No wind77%30.21 "Hg10 mi
9:15 PM59 °FClear.No wind77%30.21 "Hg10 mi
8:55 PM59 °FClear.No wind77%30.21 "Hg10 mi
8:35 PM61 °FClear.No wind72%30.22 "Hg10 mi
8:15 PM61 °FClear.No wind72%30.22 "Hg10 mi
7:55 PM61 °FClear.3 mph72%30.21 "Hg10 mi
6:55 PM63 °FClear.No wind68%30.20 "Hg10 mi
6:15 PM63 °FPassing clouds.No wind68%30.19 "Hg10 mi
5:55 PM64 °FPassing clouds.No wind64%30.20 "Hg10 mi
4:55 PM68 °FSunny.No wind53%30.19 "Hg7 mi
4:35 PM68 °FSunny.No wind53%30.19 "Hg10 mi
3:35 PM68 °FSunny.No wind53%30.20 "Hg10 mi
3:15 PM70 °FSunny.3 mph50%30.20 "Hg10 mi
2:55 PM70 °FSunny.5 mph46%30.20 "Hg7 mi
2:35 PM70 °FSunny.6 mph50%30.20 "Hg10 mi
2:15 PM70 °FSunny.7 mph50%30.22 "Hg7 mi
1:55 PM70 °FSunny.5 mph50%30.22 "Hg10 mi
1:35 PM70 °FSunny.7 mph50%30.23 "Hg7 mi
1:15 PM70 °FSunny.7 mph50%30.25 "Hg10 mi
12:55 PM68 °FSunny.5 mph56%30.25 "Hg10 mi
12:35 PM68 °FSunny.5 mph53%30.26 "Hg10 mi
12:15 PM66 °FSunny.5 mph60%30.27 "Hg10 mi
11:55 AM66 °FSunny.6 mph60%30.28 "Hg10 mi
11:35 AM64 °FSunny.3 mph64%30.29 "Hg10 mi
10:55 AM63 °FSunny.7 mph64%30.29 "Hg10 mi
10:35 AM63 °FSunny.5 mph64%30.30 "Hg10 mi
10:15 AM61 °FSunny.3 mph68%30.30 "Hg10 mi
9:55 AM59 °FSunny.No wind72%30.30 "Hg10 mi
9:35 AM57 °FSunny.No wind77%30.30 "Hg10 mi
9:15 AM55 °FSunny.No wind82%30.30 "Hg10 mi
8:55 AM54 °FSunny.No wind82%30.31 "Hg10 mi
8:35 AM52 °FSunny.No wind88%30.31 "Hg10 mi
8:15 AM50 °FSunny.No wind94%30.31 "Hg10 mi
7:55 AM46 °FSunny.No wind93%30.31 "Hg10 mi
7:35 AM46 °FSunny.No wind93%30.30 "Hg10 mi
7:15 AM48 °FSunny.No wind94%30.30 "Hg10 mi
6:55 AM48 °FClear.No wind94%30.30 "Hg10 mi
6:35 AM48 °FClear.No wind94%30.30 "Hg10 mi
6:15 AM50 °FClear.No wind88%30.29 "Hg10 mi
Weather by CustomWeather, © 2015

See weather overviewHow to use our weather pages